Tabellarische Ansicht des 30.7.2012


Die einzelnen Werte des Tages

Uhrzeit Temperatur Luftdruck Luftfeuchte Wind Hi-Wind Taupunkt THW Index Wind Chill Heat Index Solar- strahlung Regen

00:00

11.8 C

1012.0 hpa

90 %

1.6 km/h aus 105

3.2 km/h aus WNW

10.2 C

11.8 C

11.8 C

11.8 C

0 W/m

0.00 mm

00:05

11.8 C

1012.0 hpa

90 %

0.0 km/h aus 58

3.2 km/h aus WNW

10.2 C

11.9 C

11.8 C

11.9 C

0 W/m

0.00 mm

00:10

11.8 C

1012.0 hpa

90 %

1.6 km/h aus 100

3.2 km/h aus WNW

10.2 C

11.8 C

11.8 C

11.8 C

0 W/m

0.00 mm

00:15

11.7 C

1012.1 hpa

90 %

0.0 km/h aus 102

0.0 km/h aus ---

10.1 C

11.8 C

11.7 C

11.8 C

0 W/m

0.00 mm

00:20

11.8 C

1012.1 hpa

90 %

0.0 km/h aus 100

0.0 km/h aus ---

10.2 C

11.8 C

11.8 C

11.8 C

0 W/m

0.00 mm

00:25

11.8 C

1012.1 hpa

90 %

0.0 km/h aus 101

3.2 km/h aus WNW

10.2 C

11.9 C

11.8 C

11.9 C

0 W/m

0.00 mm

00:30

12.0 C

1012.2 hpa

90 %

0.0 km/h aus 106

1.6 km/h aus WNW

10.4 C

12.1 C

12.0 C

12.1 C

0 W/m

0.00 mm

00:35

11.9 C

1012.2 hpa

90 %

0.0 km/h aus 109

0.0 km/h aus ---

10.4 C

12.0 C

11.9 C

12.0 C

0 W/m

0.00 mm

00:40

11.9 C

1012.2 hpa

90 %

0.0 km/h aus 101

3.2 km/h aus WNW

10.4 C

12.0 C

11.9 C

12.0 C

0 W/m

0.00 mm

00:45

11.8 C

1012.2 hpa

90 %

1.6 km/h aus 107

3.2 km/h aus WNW

10.2 C

11.8 C

11.8 C

11.8 C

0 W/m

0.00 mm

00:50

11.7 C

1012.2 hpa

90 %

0.0 km/h aus 105

3.2 km/h aus WNW

10.1 C

11.7 C

11.7 C

11.7 C

0 W/m

0.00 mm

00:55

11.6 C

1012.2 hpa

90 %

1.6 km/h aus 100

3.2 km/h aus WNW

10.0 C

11.7 C

11.6 C

11.7 C

0 W/m

0.00 mm

01:00

11.6 C

1012.0 hpa

90 %

0.0 km/h aus 108

1.6 km/h aus WNW

10.0 C

11.6 C

11.6 C

11.6 C

0 W/m

0.00 mm

01:05

11.4 C

1012.0 hpa

90 %

1.6 km/h aus 103

3.2 km/h aus WNW

9.9 C

11.5 C

11.4 C

11.5 C

0 W/m

0.00 mm

01:10

11.3 C

1012.0 hpa

91 %

1.6 km/h aus 110

4.8 km/h aus WNW

9.9 C

11.4 C

11.3 C

11.4 C

0 W/m

0.00 mm

01:15

11.4 C

1011.8 hpa

91 %

1.6 km/h aus 113

6.4 km/h aus NNE

10.0 C

11.5 C

11.4 C

11.5 C

0 W/m

0.00 mm

01:20

11.4 C

1011.8 hpa

91 %

3.2 km/h aus 107

8.0 km/h aus E

10.0 C

11.6 C

11.4 C

11.6 C

0 W/m

0.00 mm

01:25

11.6 C

1011.8 hpa

91 %

3.2 km/h aus 110

6.4 km/h aus E

10.1 C

11.7 C

11.6 C

11.7 C

0 W/m

0.00 mm

01:30

11.6 C

1011.8 hpa

91 %

1.6 km/h aus 111

4.8 km/h aus E

10.2 C

11.7 C

11.6 C

11.7 C

0 W/m

0.00 mm

01:35

11.6 C

1011.8 hpa

90 %

1.6 km/h aus 109

4.8 km/h aus E

10.0 C

11.6 C

11.6 C

11.6 C

0 W/m

0.00 mm

01:40

11.5 C

1011.8 hpa

90 %

0.0 km/h aus 110

3.2 km/h aus E

9.9 C

11.6 C

11.5 C

11.6 C

0 W/m

0.00 mm

01:45

11.3 C

1011.8 hpa

90 %

0.0 km/h aus 114

3.2 km/h aus E

9.8 C

11.4 C

11.3 C

11.4 C

0 W/m

0.00 mm

01:50

11.3 C

1011.8 hpa

90 %

0.0 km/h aus 113

1.6 km/h aus E

9.7 C

11.4 C

11.3 C

11.4 C

0 W/m

0.00 mm

01:55

11.2 C

1011.8 hpa

90 %

0.0 km/h aus 113

1.6 km/h aus E

9.6 C

11.3 C

11.2 C

11.3 C

0 W/m

0.00 mm

02:00

11.2 C

1011.7 hpa

91 %

0.0 km/h aus 112

1.6 km/h aus E

9.8 C

11.3 C

11.2 C

11.3 C

0 W/m

0.00 mm

02:05

11.1 C

1011.7 hpa

91 %

0.0 km/h aus 113

1.6 km/h aus E

9.6 C

11.2 C

11.1 C

11.2 C

0 W/m

0.00 mm

02:10

11.1 C

1011.7 hpa

91 %

0.0 km/h aus 109

3.2 km/h aus E

9.6 C

11.2 C

11.1 C

11.2 C

0 W/m

0.00 mm

02:15

11.1 C

1011.5 hpa

91 %

1.6 km/h aus 104

4.8 km/h aus E

9.7 C

11.2 C

11.1 C

11.2 C

0 W/m

0.00 mm

02:20

11.0 C

1011.5 hpa

91 %

0.0 km/h aus 114

3.2 km/h aus E

9.6 C

11.1 C

11.0 C

11.1 C

0 W/m

0.00 mm

02:25

11.0 C

1011.5 hpa

91 %

0.0 km/h aus 111

1.6 km/h aus E

9.6 C

11.1 C

11.0 C

11.1 C

0 W/m

0.00 mm

02:30

10.9 C

1011.2 hpa

91 %

0.0 km/h aus 110

3.2 km/h aus E

9.5 C

11.1 C

10.9 C

11.1 C

0 W/m

0.00 mm

02:35

10.9 C

1011.2 hpa

92 %

1.6 km/h aus 105

3.2 km/h aus E

9.7 C

11.1 C

10.9 C

11.1 C

0 W/m

0.00 mm

02:40

10.8 C

1011.2 hpa

92 %

1.6 km/h aus 109

4.8 km/h aus E

9.6 C

11.0 C

10.8 C

11.0 C

0 W/m

0.00 mm

02:45

10.8 C

1011.2 hpa

92 %

1.6 km/h aus 108

4.8 km/h aus E

9.5 C

10.9 C

10.8 C

10.9 C

0 W/m

0.00 mm

02:50

10.7 C

1011.2 hpa

91 %

1.6 km/h aus 105

4.8 km/h aus E

9.3 C

10.8 C

10.7 C

10.8 C

0 W/m

0.00 mm

02:55

10.7 C

1011.2 hpa

92 %

1.6 km/h aus 104

3.2 km/h aus E

9.4 C

10.8 C

10.7 C

10.8 C

0 W/m

0.00 mm

03:00

10.6 C

1011.2 hpa

92 %

0.0 km/h aus 111

3.2 km/h aus E

9.3 C

10.7 C

10.6 C

10.7 C

0 W/m

0.00 mm

03:05

10.5 C

1011.2 hpa

92 %

0.0 km/h aus 111

3.2 km/h aus E

9.3 C

10.7 C

10.5 C

10.7 C

0 W/m

0.00 mm

03:10

10.5 C

1011.2 hpa

92 %

1.6 km/h aus 112

3.2 km/h aus E

9.3 C

10.7 C

10.5 C

10.7 C

0 W/m

0.00 mm

03:15

10.4 C

1011.2 hpa

92 %

0.0 km/h aus 111

3.2 km/h aus E

9.2 C

10.6 C

10.4 C

10.6 C

0 W/m

0.00 mm

03:20

10.6 C

1011.2 hpa

92 %

1.6 km/h aus 112

4.8 km/h aus E

9.3 C

10.7 C

10.6 C

10.7 C

0 W/m

0.00 mm

03:25

10.6 C

1011.2 hpa

92 %

1.6 km/h aus 107

4.8 km/h aus E

9.3 C

10.7 C

10.6 C

10.7 C

0 W/m

0.00 mm

03:30

10.6 C

1011.1 hpa

92 %

3.2 km/h aus 99

4.8 km/h aus E

9.3 C

10.7 C

10.6 C

10.7 C

0 W/m

0.00 mm

03:35

10.8 C

1011.1 hpa

93 %

1.6 km/h aus 102

3.2 km/h aus E

9.7 C

10.9 C

10.8 C

10.9 C

0 W/m

0.00 mm

03:40

11.0 C

1011.1 hpa

93 %

1.6 km/h aus 110

4.8 km/h aus E

9.9 C

11.2 C

11.0 C

11.2 C

0 W/m

0.00 mm

03:45

11.1 C

1011.2 hpa

92 %

3.2 km/h aus 99

6.4 km/h aus E

9.8 C

11.2 C

11.1 C

11.2 C

0 W/m

0.00 mm

03:50

11.1 C

1011.2 hpa

92 %

3.2 km/h aus 101

4.8 km/h aus E

9.9 C

11.2 C

11.1 C

11.2 C

0 W/m

0.00 mm

03:55

11.3 C

1011.2 hpa

92 %

1.6 km/h aus 109

4.8 km/h aus E

10.0 C

11.4 C

11.3 C

11.4 C

0 W/m

0.00 mm

04:00

11.4 C

1011.1 hpa

92 %

3.2 km/h aus 102

6.4 km/h aus E

10.2 C

11.6 C

11.4 C

11.6 C

0 W/m

0.00 mm

04:05

11.6 C

1011.1 hpa

92 %

1.6 km/h aus 106

6.4 km/h aus E

10.3 C

11.7 C

11.6 C

11.7 C

0 W/m

0.00 mm

04:10

11.6 C

1011.1 hpa

92 %

1.6 km/h aus 107

6.4 km/h aus E

10.4 C

11.7 C

11.6 C

11.7 C

0 W/m

0.00 mm

04:15

11.6 C

1011.1 hpa

91 %

1.6 km/h aus 106

4.8 km/h aus E

10.2 C

11.7 C

11.6 C

11.7 C

0 W/m

0.00 mm

04:20

11.7 C

1011.1 hpa

91 %

1.6 km/h aus 109

6.4 km/h aus E

10.2 C

11.7 C

11.7 C

11.7 C

0 W/m

0.00 mm

04:25

11.8 C

1011.1 hpa

91 %

3.2 km/h aus 107

6.4 km/h aus E

10.4 C

11.8 C

11.8 C

11.8 C

0 W/m

0.00 mm

04:30

11.9 C

1010.9 hpa

90 %

4.8 km/h aus 108

8.0 km/h aus E

10.4 C

12.0 C

11.9 C

12.0 C

0 W/m

0.00 mm

04:35

12.0 C

1010.9 hpa

90 %

3.2 km/h aus 107

8.0 km/h aus E

10.4 C

12.1 C

12.0 C

12.1 C

0 W/m

0.00 mm

04:40

12.2 C

1010.9 hpa

89 %

4.8 km/h aus 110

8.0 km/h aus E

10.5 C

12.3 C

12.2 C

12.3 C

0 W/m

0.00 mm

04:45

12.3 C

1010.8 hpa

89 %

4.8 km/h aus 105

6.4 km/h aus E

10.6 C

12.4 C

12.3 C

12.4 C

0 W/m

0.00 mm

04:50

12.4 C

1010.8 hpa

88 %

4.8 km/h aus 107

11.3 km/h aus E

10.5 C

12.4 C

12.4 C

12.4 C

0 W/m

0.00 mm

04:55

12.4 C

1010.8 hpa

88 %

3.2 km/h aus 97

6.4 km/h aus E

10.5 C

12.4 C

12.4 C

12.4 C

0 W/m

0.00 mm

05:00

12.4 C

1011.2 hpa

88 %

4.8 km/h aus 104

8.0 km/h aus SE

10.5 C

12.4 C

12.4 C

12.4 C

0 W/m

0.00 mm

05:05

12.4 C

1011.2 hpa

88 %

6.4 km/h aus 107

20.9 km/h aus SSW

10.5 C

12.1 C

12.1 C

12.4 C

0 W/m

0.00 mm

05:10

12.7 C

1011.2 hpa

87 %

14.5 km/h aus 108

24.1 km/h aus S

10.6 C

10.9 C

10.9 C

12.7 C

0 W/m

0.00 mm

05:15

12.9 C

1011.4 hpa

86 %

14.5 km/h aus 105

20.9 km/h aus S

10.7 C

11.2 C

11.2 C

12.9 C

0 W/m

0.00 mm

05:20

13.1 C

1011.4 hpa

85 %

14.5 km/h aus 105

19.3 km/h aus S

10.6 C

11.3 C

11.4 C

13.1 C

0 W/m

0.00 mm

05:25

13.2 C

1011.4 hpa

85 %

12.9 km/h aus 102

17.7 km/h aus S

10.7 C

11.8 C

11.8 C

13.1 C

0 W/m

0.00 mm

05:30

13.2 C

1011.7 hpa

85 %

11.3 km/h aus 106

14.5 km/h aus S

10.7 C

12.2 C

12.2 C

13.1 C

0 W/m

0.00 mm

05:35

13.2 C

1011.7 hpa

85 %

11.3 km/h aus 102

16.1 km/h aus S

10.7 C

12.2 C

12.2 C

13.1 C

0 W/m

0.00 mm

05:40

13.2 C

1011.7 hpa

85 %

9.7 km/h aus 108

14.5 km/h aus SSE

10.7 C

12.4 C

12.4 C

13.1 C

0 W/m

0.00 mm

05:45

13.2 C

1011.8 hpa

85 %

9.7 km/h aus 110

17.7 km/h aus S

10.8 C

12.5 C

12.6 C

13.2 C

0 W/m

0.00 mm

05:50

13.3 C

1011.8 hpa

85 %

9.7 km/h aus 104

17.7 km/h aus S

10.8 C

12.6 C

12.6 C

13.2 C

0 W/m

0.00 mm

05:55

13.3 C

1011.8 hpa

85 %

9.7 km/h aus 103

16.1 km/h aus S

10.9 C

12.6 C

12.7 C

13.3 C

0 W/m

0.00 mm

06:00

13.3 C

1011.9 hpa

85 %

9.7 km/h aus 106

14.5 km/h aus S

10.9 C

12.6 C

12.7 C

13.3 C

0 W/m

0.00 mm

06:05

13.3 C

1011.9 hpa

86 %

9.7 km/h aus 106

11.3 km/h aus S

11.0 C

12.6 C

12.6 C

13.2 C

0 W/m

0.00 mm

06:10

13.4 C

1011.9 hpa

85 %

9.7 km/h aus 105

17.7 km/h aus S

10.9 C

12.7 C

12.7 C

13.3 C

0 W/m

0.00 mm

06:15

13.4 C

1012.2 hpa

85 %

9.7 km/h aus 106

19.3 km/h aus S

11.0 C

12.7 C

12.8 C

13.4 C

0 W/m

0.00 mm

06:20

13.6 C

1012.2 hpa

85 %

9.7 km/h aus 106

17.7 km/h aus S

11.1 C

12.9 C

12.9 C

13.5 C

0 W/m

0.00 mm

06:25

13.6 C

1012.2 hpa

85 %

6.4 km/h aus 110

11.3 km/h aus SSW

11.1 C

13.4 C

13.5 C

13.5 C

0 W/m

0.00 mm

06:30

13.6 C

1012.3 hpa

85 %

9.7 km/h aus 110

19.3 km/h aus S

11.1 C

12.9 C

12.9 C

13.5 C

0 W/m

0.00 mm

06:35

13.6 C

1012.3 hpa

85 %

9.7 km/h aus 106

17.7 km/h aus SSW

11.1 C

12.9 C

12.9 C

13.5 C

0 W/m

0.25 mm

06:40

13.4 C

1012.3 hpa

86 %

8.0 km/h aus 106

19.3 km/h aus SW

11.1 C

13.0 C

13.1 C

13.4 C

0 W/m

0.00 mm

06:45

13.3 C

1012.4 hpa

86 %

8.0 km/h aus 104

16.1 km/h aus S

11.0 C

12.8 C

12.9 C

13.2 C

0 W/m

0.25 mm

06:50

13.2 C

1012.4 hpa

87 %

4.8 km/h aus 108

9.7 km/h aus SW

11.0 C

13.2 C

13.2 C

13.2 C

0 W/m

0.51 mm

06:55

13.1 C

1012.4 hpa

89 %

4.8 km/h aus 106

9.7 km/h aus SSW

11.3 C

13.1 C

13.1 C

13.1 C

0 W/m

0.25 mm

07:00

12.9 C

1012.4 hpa

89 %

6.4 km/h aus 104

9.7 km/h aus SSW

11.2 C

12.8 C

12.8 C

13.0 C

0 W/m

0.00 mm

07:05

12.9 C

1012.4 hpa

90 %

4.8 km/h aus 106

9.7 km/h aus SSW

11.3 C

12.9 C

12.9 C

12.9 C

0 W/m

0.00 mm

07:10

12.8 C

1012.4 hpa

90 %

1.6 km/h aus 109

8.0 km/h aus SSW

11.2 C

12.8 C

12.8 C

12.8 C

0 W/m

0.00 mm

07:15

12.7 C

1012.2 hpa

91 %

1.6 km/h aus 109

4.8 km/h aus SW

11.3 C

12.8 C

12.7 C

12.8 C

0 W/m

0.00 mm

07:20

12.7 C

1012.2 hpa

91 %

1.6 km/h aus 111

4.8 km/h aus SW

11.2 C

12.7 C

12.7 C

12.7 C

0 W/m

0.00 mm

07:25

12.7 C

1012.2 hpa

92 %

4.8 km/h aus 104

9.7 km/h aus SW

11.5 C

12.8 C

12.7 C

12.8 C

0 W/m

0.00 mm

07:30

12.7 C

1012.2 hpa

92 %

3.2 km/h aus 103

6.4 km/h aus SSW

11.5 C

12.8 C

12.7 C

12.8 C

0 W/m

0.00 mm

07:35

12.7 C

1012.2 hpa

92 %

3.2 km/h aus 103

8.0 km/h aus SSW

11.4 C

12.7 C

12.7 C

12.7 C

0 W/m

0.25 mm

07:40

12.7 C

1012.2 hpa

92 %

4.8 km/h aus 108

9.7 km/h aus S

11.4 C

12.7 C

12.7 C

12.7 C

0 W/m

0.25 mm

07:45

12.7 C

1012.3 hpa

92 %

1.6 km/h aus 109

6.4 km/h aus S

11.4 C

12.7 C

12.7 C

12.7 C

0 W/m

0.00 mm

07:50

12.7 C

1012.3 hpa

93 %

3.2 km/h aus 108

6.4 km/h aus S

11.6 C

12.8 C

12.7 C

12.8 C

0 W/m

0.00 mm

07:55

12.7 C

1012.3 hpa

93 %

4.8 km/h aus 101

9.7 km/h aus S

11.6 C

12.8 C

12.7 C

12.8 C

0 W/m

0.00 mm

08:00

12.7 C

1012.6 hpa

93 %

8.0 km/h aus 105

17.7 km/h aus S

11.6 C

12.3 C

12.2 C

12.8 C

0 W/m

0.00 mm

08:05

12.7 C

1012.6 hpa

93 %

9.7 km/h aus 103

16.1 km/h aus S

11.6 C

12.1 C

11.9 C

12.8 C

0 W/m

0.00 mm

08:10

12.8 C

1012.6 hpa

93 %

14.5 km/h aus 104

19.3 km/h aus S

11.7 C

11.1 C

11.0 C

12.9 C

0 W/m

0.00 mm

08:15

12.8 C

1012.7 hpa

93 %

14.5 km/h aus 108

20.9 km/h aus S

11.7 C

11.1 C

11.0 C

12.9 C

0 W/m

0.00 mm

08:20

12.9 C

1012.7 hpa

93 %

11.3 km/h aus 111

16.1 km/h aus S

11.8 C

12.0 C

11.9 C

13.0 C

0 W/m

0.00 mm

08:25

12.8 C

1012.7 hpa

93 %

9.7 km/h aus 107

16.1 km/h aus S

11.7 C

12.2 C

12.1 C

12.9 C

0 W/m

0.00 mm

08:30

12.9 C

1012.7 hpa

93 %

8.0 km/h aus 107

17.7 km/h aus SSW

11.8 C

12.5 C

12.4 C

13.0 C

0 W/m

0.00 mm

08:35

13.0 C

1012.7 hpa

93 %

9.7 km/h aus 108

19.3 km/h aus S

11.9 C

12.4 C

12.3 C

13.1 C

0 W/m

0.00 mm

08:40

13.1 C

1012.7 hpa

93 %

12.9 km/h aus 109

22.5 km/h aus S

12.0 C

11.9 C

11.8 C

13.2 C

0 W/m

0.00 mm

08:45

13.3 C

1012.7 hpa

93 %

14.5 km/h aus 108

24.1 km/h aus S

12.2 C

11.7 C

11.6 C

13.4 C

0 W/m

0.00 mm

08:50

13.2 C

1012.7 hpa

93 %

14.5 km/h aus 110

29.0 km/h aus S

12.1 C

11.7 C

11.6 C

13.3 C

0 W/m

0.00 mm

08:55

13.4 C

1012.7 hpa

93 %

11.3 km/h aus 108

20.9 km/h aus S

12.3 C

12.7 C

12.6 C

13.6 C

0 W/m

0.00 mm

09:00

13.4 C

1012.7 hpa

92 %

14.5 km/h aus 104

25.7 km/h aus S

12.1 C

11.8 C

11.7 C

13.4 C

0 W/m

0.00 mm

09:05

13.4 C

1012.7 hpa

92 %

14.5 km/h aus 106

22.5 km/h aus SSW

12.2 C

11.8 C

11.8 C

13.5 C

0 W/m

0.00 mm

09:10

13.8 C

1012.7 hpa

92 %

16.1 km/h aus 106

30.6 km/h aus SSW

12.5 C

11.9 C

11.8 C

13.8 C

0 W/m

0.00 mm

09:15

14.1 C

1012.7 hpa

91 %

16.1 km/h aus 110

29.0 km/h aus S

12.6 C

12.2 C

12.1 C

14.1 C

0 W/m

0.00 mm

09:20

14.1 C

1012.7 hpa

89 %

14.5 km/h aus 107

25.7 km/h aus SSW

12.3 C

12.6 C

12.6 C

14.2 C

0 W/m

0.00 mm

09:25

14.1 C

1012.7 hpa

89 %

14.5 km/h aus 110

29.0 km/h aus S

12.3 C

12.6 C

12.6 C

14.2 C

0 W/m

0.00 mm

09:30

14.1 C

1012.7 hpa

88 %

17.7 km/h aus 110

29.0 km/h aus S

12.2 C

11.8 C

11.8 C

14.1 C

0 W/m

0.00 mm

09:35

14.1 C

1012.7 hpa

87 %

14.5 km/h aus 113

25.7 km/h aus S

12.0 C

12.6 C

12.6 C

14.1 C

0 W/m

0.00 mm

09:40

14.2 C

1012.7 hpa

87 %

16.1 km/h aus 103

30.6 km/h aus SSW

12.0 C

12.3 C

12.3 C

14.2 C

0 W/m

0.00 mm

09:45

14.2 C

1012.8 hpa

86 %

17.7 km/h aus 104

27.4 km/h aus SSW

11.9 C

11.9 C

12.0 C

14.2 C

0 W/m

0.00 mm

09:50

14.2 C

1012.8 hpa

85 %

19.3 km/h aus 96

33.8 km/h aus SSW

11.7 C

11.6 C

11.7 C

14.2 C

0 W/m

0.00 mm

09:55

14.3 C

1012.8 hpa

85 %

14.5 km/h aus 103

22.5 km/h aus SW

11.8 C

12.7 C

12.7 C

14.2 C

0 W/m

0.00 mm

10:00

14.6 C

1012.7 hpa

85 %

14.5 km/h aus 107

25.7 km/h aus SSW

12.1 C

13.1 C

13.2 C

14.6 C

0 W/m

0.00 mm

10:05

14.6 C

1012.7 hpa

84 %

14.5 km/h aus 110

25.7 km/h aus S

11.9 C

13.1 C

13.2 C

14.6 C

0 W/m

0.00 mm

10:10

14.4 C

1012.7 hpa

84 %

11.3 km/h aus 102

20.9 km/h aus SW

11.8 C

13.7 C

13.8 C

14.4 C

0 W/m

0.00 mm

10:15

14.8 C

1012.7 hpa

84 %

16.1 km/h aus 106

22.5 km/h aus S

12.2 C

12.9 C

13.0 C

14.8 C

0 W/m

0.00 mm

10:20

15.0 C

1012.7 hpa

84 %

14.5 km/h aus 101

20.9 km/h aus SSW

12.3 C

13.6 C

13.6 C

15.0 C

0 W/m

0.00 mm

10:25

15.0 C

1012.7 hpa

83 %

17.7 km/h aus 105

30.6 km/h aus SSW

12.1 C

12.8 C

12.9 C

14.9 C

0 W/m

0.00 mm

10:30

15.0 C

1012.7 hpa

83 %

11.3 km/h aus 102

20.9 km/h aus SW

12.1 C

14.4 C

14.4 C

14.9 C

0 W/m

0.00 mm

10:35

15.4 C

1012.7 hpa

81 %

12.9 km/h aus 104

29.0 km/h aus S

12.2 C

14.6 C

14.6 C

15.4 C

0 W/m

0.00 mm

10:40

15.6 C

1012.7 hpa

80 %

16.1 km/h aus 108

29.0 km/h aus S

12.2 C

13.9 C

13.9 C

15.6 C

0 W/m

0.00 mm

10:45

15.9 C

1012.7 hpa

78 %

16.1 km/h aus 106

25.7 km/h aus S

12.1 C

14.2 C

14.3 C

15.8 C

0 W/m

0.00 mm

10:50

16.7 C

1012.7 hpa

82 %

17.7 km/h aus 108

29.0 km/h aus S

13.6 C

14.9 C

14.8 C

16.8 C

0 W/m

0.00 mm

10:55

16.7 C

1012.7 hpa

76 %

19.3 km/h aus 112

32.2 km/h aus SSW

12.4 C

14.4 C

14.4 C

16.6 C

0 W/m

0.00 mm

11:00

16.6 C

1012.4 hpa

75 %

19.3 km/h aus 110

37.0 km/h aus S

12.2 C

14.3 C

14.4 C

16.5 C

0 W/m

0.00 mm

11:05

16.6 C

1012.4 hpa

75 %

17.7 km/h aus 104

27.4 km/h aus SSW

12.2 C

14.6 C

14.7 C

16.5 C

0 W/m

0.00 mm

11:10

16.6 C

1012.4 hpa

75 %

14.5 km/h aus 100

24.1 km/h aus SSW

12.1 C

15.3 C

15.4 C

16.4 C

0 W/m

0.00 mm

11:15

16.8 C

1012.3 hpa

72 %

17.7 km/h aus 110

30.6 km/h aus SSW

11.8 C

14.8 C

15.0 C

16.7 C

0 W/m

0.00 mm

11:20

17.2 C

1012.3 hpa

70 %

14.5 km/h aus 113

25.7 km/h aus SSW

11.6 C

16.0 C

16.2 C

17.0 C

0 W/m

0.00 mm

11:25

17.5 C

1012.3 hpa

71 %

16.1 km/h aus 108

25.7 km/h aus S

12.2 C

16.1 C

16.2 C

17.4 C

0 W/m

0.00 mm

11:30

17.4 C

1012.3 hpa

66 %

22.5 km/h aus 105

35.4 km/h aus SSW

11.0 C

14.5 C

14.8 C

17.1 C

0 W/m

0.00 mm

11:35

17.4 C

1012.3 hpa

68 %

19.3 km/h aus 105

30.6 km/h aus SW

11.5 C

15.1 C

15.3 C

17.2 C

0 W/m

0.00 mm

11:40

17.7 C

1012.3 hpa

67 %

19.3 km/h aus 108

35.4 km/h aus SW

11.5 C

15.4 C

15.6 C

17.4 C

0 W/m

0.00 mm

11:45

17.6 C

1012.2 hpa

66 %

17.7 km/h aus 108

27.4 km/h aus WSW

11.2 C

15.6 C

15.9 C

17.3 C

0 W/m

0.00 mm

11:50

17.7 C

1012.2 hpa

64 %

17.7 km/h aus 105

29.0 km/h aus SSW

10.8 C

15.7 C

16.0 C

17.4 C

0 W/m

0.00 mm

11:55

17.6 C

1012.2 hpa

66 %

14.5 km/h aus 109

27.4 km/h aus SSW

11.2 C

16.4 C

16.7 C

17.3 C

0 W/m

0.00 mm

12:00

18.2 C

1012.2 hpa

66 %

12.9 km/h aus 113

24.1 km/h aus S

11.7 C

17.6 C

17.8 C

18.0 C

0 W/m

0.00 mm

12:05

18.4 C

1012.2 hpa

62 %

16.1 km/h aus 114

29.0 km/h aus SW

11.0 C

16.9 C

17.2 C

18.1 C

0 W/m

0.00 mm

12:10

18.3 C

1012.2 hpa

61 %

17.7 km/h aus 111

27.4 km/h aus SSW

10.6 C

16.3 C

16.7 C

17.9 C

0 W/m

0.00 mm

12:15

18.0 C

1012.2 hpa

60 %

17.7 km/h aus 110

30.6 km/h aus S

10.1 C

15.8 C

16.3 C

17.5 C

0 W/m

0.00 mm

12:20

18.4 C

1012.2 hpa

60 %

19.3 km/h aus 109

38.6 km/h aus SSW

10.5 C

16.1 C

16.5 C

18.0 C

0 W/m

0.00 mm

12:25

18.6 C

1012.2 hpa

64 %

19.3 km/h aus 112

38.6 km/h aus SSW

11.6 C

16.4 C

16.6 C

18.3 C

0 W/m

0.00 mm

12:30

18.8 C

1012.0 hpa

61 %

19.3 km/h aus 108

30.6 km/h aus S

11.1 C

16.6 C

16.9 C

18.5 C

0 W/m

0.00 mm

12:35

18.4 C

1012.0 hpa

60 %

16.1 km/h aus 113

25.7 km/h aus SW

10.5 C

16.8 C

17.2 C

18.0 C

0 W/m

0.00 mm

12:40

18.3 C

1012.0 hpa

60 %

16.1 km/h aus 108

27.4 km/h aus SSW

10.4 C

16.6 C

17.1 C

17.8 C

0 W/m

0.00 mm

12:45

18.8 C

1011.9 hpa

61 %

12.9 km/h aus 111

27.4 km/h aus SSW

11.1 C

18.2 C

18.5 C

18.5 C

0 W/m

0.00 mm

12:50

19.2 C

1011.9 hpa

60 %

9.7 km/h aus 109

24.1 km/h aus S

11.3 C

18.9 C

19.2 C

18.9 C

0 W/m

0.00 mm

12:55

19.4 C

1011.9 hpa

59 %

11.3 km/h aus 113

20.9 km/h aus SW

11.2 C

19.1 C

19.4 C

19.1 C

0 W/m

0.00 mm

13:00

20.0 C

1011.8 hpa

58 %

17.7 km/h aus 110

35.4 km/h aus S

11.5 C

18.3 C

18.6 C

19.7 C

0 W/m

0.00 mm

13:05

19.8 C

1011.8 hpa

56 %

20.9 km/h aus 116

40.2 km/h aus S

10.8 C

17.4 C

17.8 C

19.4 C

0 W/m

0.00 mm

13:10

19.6 C

1011.8 hpa

57 %

17.7 km/h aus 113

29.0 km/h aus SSW

10.8 C

17.7 C

18.1 C

19.2 C

0 W/m

0.00 mm

13:15

19.6 C

1011.8 hpa

57 %

17.7 km/h aus 111

32.2 km/h aus SW

10.9 C

17.8 C

18.2 C

19.2 C

0 W/m

0.00 mm

13:20

19.2 C

1011.8 hpa

56 %

22.5 km/h aus 114

38.6 km/h aus SSW

10.2 C

16.4 C

16.9 C

18.7 C

0 W/m

0.00 mm

13:25

19.1 C

1011.8 hpa

59 %

19.3 km/h aus 110

32.2 km/h aus S

10.9 C

16.9 C

17.3 C

18.7 C

0 W/m

0.00 mm

13:30

18.8 C

1011.8 hpa

57 %

17.7 km/h aus 109

32.2 km/h aus SSW

10.1 C

16.8 C

17.3 C

18.3 C

0 W/m

0.00 mm

13:35

18.4 C

1011.8 hpa

59 %

17.7 km/h aus 113

29.0 km/h aus SSW

10.3 C

16.3 C

16.8 C

17.9 C

0 W/m

0.00 mm

13:40

18.1 C

1011.8 hpa

60 %

17.7 km/h aus 107

32.2 km/h aus WSW

10.2 C

16.0 C

16.4 C

17.7 C

0 W/m

0.00 mm

13:45

17.9 C

1012.0 hpa

60 %

17.7 km/h aus 113

29.0 km/h aus WSW

10.0 C

15.7 C

16.2 C

17.4 C

0 W/m

0.00 mm

13:50

18.6 C

1012.0 hpa

57 %

16.1 km/h aus 105

30.6 km/h aus SW

9.9 C

16.8 C

17.4 C

18.0 C

0 W/m

0.00 mm

13:55

19.2 C

1012.0 hpa

57 %

14.5 km/h aus 111

27.4 km/h aus SW

10.5 C

18.1 C

18.5 C

18.8 C

0 W/m

0.00 mm

14:00

20.1 C

1011.8 hpa

56 %

19.3 km/h aus 106

32.2 km/h aus SSW

11.0 C

17.9 C

18.3 C

19.7 C

0 W/m

0.00 mm

14:05

20.4 C

1011.8 hpa

55 %

17.7 km/h aus 110

30.6 km/h aus S

11.0 C

18.4 C

18.9 C

19.9 C

0 W/m

0.00 mm

14:10

19.9 C

1011.8 hpa

52 %

17.7 km/h aus 111

29.0 km/h aus SSW

9.7 C

17.8 C

18.4 C

19.3 C

0 W/m

0.00 mm

14:15

19.8 C

1011.8 hpa

52 %

20.9 km/h aus 111

32.2 km/h aus SSE

9.7 C

17.2 C

17.8 C

19.2 C

0 W/m

0.00 mm

14:20

19.6 C

1011.8 hpa

54 %

20.9 km/h aus 108

32.2 km/h aus SSW

10.0 C

17.0 C

17.6 C

19.1 C

0 W/m

0.00 mm

14:25

19.7 C

1011.8 hpa

52 %

17.7 km/h aus 113

30.6 km/h aus S

9.6 C

17.6 C

18.3 C

19.1 C

0 W/m

0.00 mm

14:30

19.4 C

1011.7 hpa

53 %

14.5 km/h aus 109

25.7 km/h aus SSW

9.6 C

18.1 C

18.7 C

18.8 C

0 W/m

0.00 mm

14:35

19.6 C

1011.7 hpa

52 %

17.7 km/h aus 111

29.0 km/h aus SSW

9.5 C

17.5 C

18.2 C

18.9 C

0 W/m

0.00 mm

14:40

19.9 C

1011.7 hpa

53 %

14.5 km/h aus 110

24.1 km/h aus WSW

10.1 C

18.6 C

19.2 C

19.4 C

0 W/m

0.00 mm

14:45

19.7 C

1011.7 hpa

53 %

9.7 km/h aus 109

20.9 km/h aus SW

9.9 C

19.1 C

19.7 C

19.1 C

0 W/m

0.00 mm

14:50

20.2 C

1011.7 hpa

52 %

12.9 km/h aus 114

25.7 km/h aus SSW

10.0 C

19.2 C

19.8 C

19.6 C

0 W/m

0.00 mm

14:55

20.1 C

1011.7 hpa

51 %

19.3 km/h aus 113

29.0 km/h aus SSW

9.7 C

17.7 C

18.4 C

19.4 C

0 W/m

0.00 mm

15:00

20.3 C

1011.7 hpa

51 %

14.5 km/h aus 113

25.7 km/h aus SSW

9.9 C

18.8 C

19.6 C

19.6 C

0 W/m

0.00 mm

15:05

20.6 C

1011.7 hpa

51 %

14.5 km/h aus 112

32.2 km/h aus SW

10.1 C

19.1 C

19.8 C

19.8 C

0 W/m

0.00 mm

15:10

20.1 C

1011.7 hpa

54 %

16.1 km/h aus 114

29.0 km/h aus SSW

10.5 C

18.4 C

18.9 C

19.6 C

0 W/m

0.00 mm

15:15

20.4 C

1011.7 hpa

53 %

16.1 km/h aus 114

27.4 km/h aus SSW

10.5 C

18.7 C

19.3 C

19.8 C

0 W/m

0.00 mm

15:20

20.5 C

1011.7 hpa

50 %

20.9 km/h aus 114

29.0 km/h aus S

9.7 C

17.7 C

18.5 C

19.7 C

0 W/m

0.00 mm

15:25

20.4 C

1011.7 hpa

52 %

17.7 km/h aus 111

27.4 km/h aus SSW

10.3 C

18.3 C

19.0 C

19.8 C

0 W/m

0.00 mm

15:30

20.3 C

1011.8 hpa

55 %

22.5 km/h aus 115

37.0 km/h aus S

10.9 C

17.6 C

18.1 C

19.8 C

0 W/m

0.00 mm

15:35

19.8 C

1011.8 hpa

53 %

16.1 km/h aus 113

29.0 km/h aus S

9.9 C

18.1 C

18.6 C

19.2 C

0 W/m

0.00 mm

15:40

19.5 C

1011.8 hpa

53 %

11.3 km/h aus 112

19.3 km/h aus SW

9.7 C

18.9 C

19.5 C

18.9 C

0 W/m

0.00 mm

15:45

19.3 C

1011.9 hpa

51 %

16.1 km/h aus 112

27.4 km/h aus SSW

8.9 C

17.5 C

18.2 C

18.6 C

0 W/m

0.00 mm

15:50

19.2 C

1011.9 hpa

54 %

6.4 km/h aus 114

16.1 km/h aus WSW

9.6 C

18.6 C

19.2 C

18.6 C

0 W/m

0.00 mm

15:55

18.8 C

1011.9 hpa

55 %

12.9 km/h aus 113

24.1 km/h aus W

9.5 C

17.8 C

18.4 C

18.2 C

0 W/m

0.00 mm

16:00

18.0 C

1012.8 hpa

56 %

12.9 km/h aus 108

22.5 km/h aus SSW

9.1 C

16.9 C

17.6 C

17.3 C

0 W/m

0.00 mm

16:05

17.1 C

1012.8 hpa

62 %

17.7 km/h aus 110

35.4 km/h aus WSW

9.8 C

14.8 C

15.3 C

16.6 C

0 W/m

0.51 mm

16:10

15.6 C

1012.8 hpa

68 %

12.9 km/h aus 106

27.4 km/h aus SW

9.7 C

14.4 C

14.8 C

15.2 C

0 W/m

0.00 mm

16:15

15.0 C

1012.4 hpa

74 %

11.3 km/h aus 108

22.5 km/h aus S

10.4 C

14.2 C

14.4 C

14.7 C

0 W/m

0.25 mm

16:20

16.2 C

1012.4 hpa

75 %

4.8 km/h aus 104

9.7 km/h aus SE

11.8 C

16.1 C

16.2 C

16.1 C

0 W/m

0.00 mm

16:25

16.9 C

1012.4 hpa

66 %

3.2 km/h aus 99

8.0 km/h aus SSW

10.5 C

16.6 C

16.9 C

16.6 C

0 W/m

0.00 mm

16:30

17.4 C

1012.3 hpa

65 %

1.6 km/h aus 99

8.0 km/h aus SW

10.7 C

17.1 C

17.4 C

17.1 C

0 W/m

0.00 mm

16:35

17.8 C

1012.3 hpa

64 %

1.6 km/h aus 106

6.4 km/h aus SW

10.9 C

17.5 C

17.8 C

17.5 C

0 W/m

0.00 mm

16:40

18.2 C

1012.3 hpa

60 %

3.2 km/h aus 109

8.0 km/h aus SW

10.3 C

17.7 C

18.2 C

17.7 C

0 W/m

0.00 mm

16:45

18.4 C

1012.2 hpa

60 %

3.2 km/h aus 111

9.7 km/h aus SSE

10.5 C

18.0 C

18.4 C

18.0 C

0 W/m

0.00 mm

16:50

19.0 C

1012.2 hpa

57 %

12.9 km/h aus 112

27.4 km/h aus SSW

10.3 C

18.2 C

18.7 C

18.5 C

0 W/m

0.00 mm

16:55

18.3 C

1012.2 hpa

59 %

29.0 km/h aus 112

56.3 km/h aus SW

10.2 C

14.7 C

15.2 C

17.8 C

0 W/m

0.00 mm

17:00

17.2 C

1012.9 hpa

65 %

20.9 km/h aus 110

40.2 km/h aus WNW

10.5 C

14.4 C

14.8 C

16.8 C

0 W/m

0.00 mm

17:05

17.1 C

1012.9 hpa

67 %

17.7 km/h aus 109

32.2 km/h aus WNW

10.9 C

15.1 C

15.3 C

16.8 C

0 W/m

0.00 mm

17:10

17.0 C

1012.9 hpa

68 %

17.7 km/h aus 111

32.2 km/h aus WNW

11.0 C

14.9 C

15.2 C

16.7 C

0 W/m

0.00 mm

17:15

16.7 C

1013.2 hpa

71 %

12.9 km/h aus 112

29.0 km/h aus NW

11.4 C

15.9 C

16.1 C

16.5 C

0 W/m

0.00 mm

17:20

16.6 C

1013.2 hpa

71 %

11.3 km/h aus 112

22.5 km/h aus WNW

11.3 C

16.2 C

16.4 C

16.4 C

0 W/m

0.00 mm

17:25

16.7 C

1013.2 hpa

71 %

11.3 km/h aus 113

22.5 km/h aus WNW

11.4 C

16.3 C

16.5 C

16.4 C

0 W/m

0.00 mm

17:30

16.9 C

1013.2 hpa

72 %

9.7 km/h aus 108

19.3 km/h aus WNW

11.8 C

16.7 C

16.9 C

16.7 C

0 W/m

0.00 mm

17:35

16.9 C

1013.2 hpa

70 %

6.4 km/h aus 108

20.9 km/h aus NW

11.4 C

16.7 C

16.9 C

16.7 C

0 W/m

0.00 mm

17:40

16.8 C

1013.2 hpa

70 %

11.3 km/h aus 111

19.3 km/h aus WNW

11.3 C

16.3 C

16.6 C

16.5 C

0 W/m

0.00 mm

17:45

16.8 C

1013.0 hpa

68 %

14.5 km/h aus 111

25.7 km/h aus WNW

10.8 C

15.4 C

15.7 C

16.5 C

0 W/m

0.00 mm

17:50

16.7 C

1013.0 hpa

68 %

9.7 km/h aus 111

20.9 km/h aus WNW

10.8 C

16.4 C

16.7 C

16.4 C

0 W/m

0.00 mm

17:55

16.9 C

1013.0 hpa

70 %

9.7 km/h aus 113

17.7 km/h aus SW

11.4 C

16.7 C

16.9 C

16.7 C

0 W/m

0.00 mm

18:00

17.1 C

1012.9 hpa

67 %

8.0 km/h aus 107

16.1 km/h aus WNW

10.9 C

16.8 C

17.1 C

16.8 C

0 W/m

0.00 mm

18:05

17.1 C

1012.9 hpa

67 %

8.0 km/h aus 113

16.1 km/h aus WNW

10.9 C

16.8 C

17.1 C

16.8 C

0 W/m

0.00 mm

18:10

16.7 C

1012.9 hpa

68 %

4.8 km/h aus 106

11.3 km/h aus W

10.7 C

16.3 C

16.7 C

16.3 C

0 W/m

0.00 mm

18:15

16.7 C

1012.9 hpa

68 %

6.4 km/h aus 110

11.3 km/h aus NW

10.7 C

16.3 C

16.7 C

16.3 C

0 W/m

0.00 mm

18:20

17.0 C

1012.9 hpa

67 %

6.4 km/h aus 113

14.5 km/h aus WNW

10.8 C

16.7 C

17.0 C

16.7 C

0 W/m

0.00 mm

18:25

17.6 C

1012.9 hpa

65 %

11.3 km/h aus 113

19.3 km/h aus WNW

10.9 C

17.3 C

17.6 C

17.3 C

0 W/m

0.00 mm

18:30

17.7 C

1012.9 hpa

63 %

6.4 km/h aus 110

17.7 km/h aus WSW

10.5 C

17.3 C

17.7 C

17.3 C

0 W/m

0.00 mm

18:35

17.7 C

1012.9 hpa

62 %

8.0 km/h aus 113

19.3 km/h aus WNW

10.3 C

17.2 C

17.7 C

17.2 C

0 W/m

0.00 mm

18:40

17.4 C

1012.9 hpa

62 %

9.7 km/h aus 110

17.7 km/h aus WNW

10.1 C

17.0 C

17.4 C

17.0 C

0 W/m

0.00 mm

18:45

17.4 C

1013.3 hpa

64 %

4.8 km/h aus 113

11.3 km/h aus W

10.5 C

17.0 C

17.4 C

17.0 C

0 W/m

0.00 mm

18:50

17.2 C

1013.3 hpa

64 %

6.4 km/h aus 111

11.3 km/h aus WSW

10.3 C

16.8 C

17.2 C

16.8 C

0 W/m

0.00 mm

18:55

17.1 C

1013.3 hpa

65 %

1.6 km/h aus 108

8.0 km/h aus W

10.4 C

16.7 C

17.1 C

16.7 C

0 W/m

0.00 mm

19:00

16.9 C

1013.2 hpa

64 %

3.2 km/h aus 108

9.7 km/h aus WSW

10.1 C

16.6 C

16.9 C

16.6 C

0 W/m

0.00 mm

19:05

17.0 C

1013.2 hpa

65 %

0.0 km/h aus 113

3.2 km/h aus WSW

10.4 C

16.7 C

17.0 C

16.7 C

0 W/m

0.00 mm

19:10

17.1 C

1013.2 hpa

66 %

0.0 km/h aus 114

3.2 km/h aus WSW

10.7 C

16.8 C

17.1 C

16.8 C

0 W/m

0.00 mm

19:15

17.2 C

1013.3 hpa

66 %

1.6 km/h aus 110

6.4 km/h aus WSW

10.8 C

16.8 C

17.2 C

16.8 C

0 W/m

0.00 mm

19:20

17.0 C

1013.3 hpa

68 %

3.2 km/h aus 108

6.4 km/h aus WSW

11.0 C

16.7 C

17.0 C

16.7 C

0 W/m

0.00 mm

19:25

16.9 C

1013.3 hpa

67 %

1.6 km/h aus 114

8.0 km/h aus WSW

10.8 C

16.7 C

16.9 C

16.7 C

0 W/m

0.00 mm

19:30

16.8 C

1013.3 hpa

69 %

4.8 km/h aus 113

8.0 km/h aus WSW

11.1 C

16.5 C

16.8 C

16.5 C

0 W/m

0.00 mm

19:35

16.6 C

1013.3 hpa

70 %

3.2 km/h aus 100

6.4 km/h aus SW

11.1 C

16.3 C

16.6 C

16.3 C

0 W/m

0.00 mm

19:40

16.5 C

1013.3 hpa

70 %

3.2 km/h aus 111

8.0 km/h aus S

11.0 C

16.2 C

16.5 C

16.2 C

0 W/m

0.00 mm

19:45

16.6 C

1013.3 hpa

68 %

8.0 km/h aus 106

14.5 km/h aus SSW

10.6 C

16.2 C

16.6 C

16.2 C

0 W/m

0.00 mm

19:50

16.8 C

1013.3 hpa

64 %

16.1 km/h aus 109

29.0 km/h aus S

10.0 C

14.9 C

15.4 C

16.4 C

0 W/m

0.00 mm

19:55

17.0 C

1013.3 hpa

62 %

16.1 km/h aus 108

33.8 km/h aus SSW

9.7 C

15.1 C

15.6 C

16.5 C

0 W/m

0.00 mm

20:00

17.1 C

1013.3 hpa

62 %

17.7 km/h aus 104

29.0 km/h aus SW

9.7 C

14.7 C

15.2 C

16.6 C

0 W/m

0.00 mm

20:05

17.1 C

1013.3 hpa

62 %

16.1 km/h aus 108

27.4 km/h aus S

9.7 C

15.1 C

15.6 C

16.6 C

0 W/m

0.00 mm

20:10

17.0 C

1013.3 hpa

64 %

16.1 km/h aus 107

24.1 km/h aus S

10.1 C

15.2 C

15.6 C

16.6 C

0 W/m

0.00 mm

20:15

16.7 C

1013.7 hpa

65 %

11.3 km/h aus 107

25.7 km/h aus S

10.1 C

16.2 C

16.6 C

16.3 C

0 W/m

0.00 mm

20:20

16.4 C

1013.7 hpa

62 %

12.9 km/h aus 112

25.7 km/h aus SW

9.1 C

15.2 C

15.7 C

15.8 C

0 W/m

0.00 mm

20:25

15.8 C

1013.7 hpa

62 %

11.3 km/h aus 105

19.3 km/h aus WSW

8.6 C

14.8 C

15.4 C

15.2 C

0 W/m

0.00 mm

20:30

15.4 C

1013.8 hpa

64 %

9.7 km/h aus 110

19.3 km/h aus W

8.6 C

14.6 C

15.1 C

14.8 C

0 W/m

0.00 mm

20:35

15.0 C

1013.8 hpa

65 %

9.7 km/h aus 105

19.3 km/h aus WSW

8.5 C

14.1 C

14.7 C

14.4 C

0 W/m

0.00 mm

20:40

15.0 C

1013.8 hpa

67 %

6.4 km/h aus 108

16.1 km/h aus WNW

8.9 C

14.5 C

15.0 C

14.5 C

0 W/m

0.00 mm

20:45

14.8 C

1013.8 hpa

69 %

6.4 km/h aus 106

17.7 km/h aus WNW

9.1 C

14.3 C

14.8 C

14.3 C

0 W/m

0.00 mm

20:50

14.7 C

1013.8 hpa

70 %

3.2 km/h aus 99

11.3 km/h aus WNW

9.3 C

14.2 C

14.7 C

14.2 C

0 W/m

0.00 mm

20:55

14.6 C

1013.8 hpa

71 %

1.6 km/h aus 109

4.8 km/h aus WNW

9.4 C

14.2 C

14.6 C

14.2 C

0 W/m

0.00 mm

21:00

14.6 C

1013.9 hpa

71 %

0.0 km/h aus 106

4.8 km/h aus WNW

9.4 C

14.2 C

14.6 C

14.2 C

0 W/m

0.00 mm

21:05

14.4 C

1013.9 hpa

72 %

1.6 km/h aus 108

3.2 km/h aus WNW

9.4 C

14.0 C

14.4 C

14.0 C

0 W/m

0.00 mm

21:10

14.4 C

1013.9 hpa

72 %

0.0 km/h aus 108

3.2 km/h aus WNW

9.4 C

14.0 C

14.4 C

14.0 C

0 W/m

0.00 mm

21:15

14.4 C

1014.0 hpa

71 %

1.6 km/h aus 102

4.8 km/h aus WNW

9.2 C

14.1 C

14.4 C

14.1 C

0 W/m

0.00 mm

21:20

14.3 C

1014.0 hpa

74 %

3.2 km/h aus 101

4.8 km/h aus WNW

9.7 C

13.9 C

14.3 C

13.9 C

0 W/m

0.00 mm

21:25

14.1 C

1014.0 hpa

77 %

3.2 km/h aus 106

4.8 km/h aus WNW

10.1 C

13.9 C

14.1 C

13.9 C

0 W/m

0.00 mm

21:30

14.1 C

1014.2 hpa

76 %

3.2 km/h aus 108

6.4 km/h aus WNW

9.9 C

13.8 C

14.1 C

13.8 C

0 W/m

0.00 mm

21:35

14.0 C

1014.2 hpa

76 %

3.2 km/h aus 108

4.8 km/h aus WNW

9.8 C

13.7 C

14.0 C

13.7 C

0 W/m

0.00 mm

21:40

13.9 C

1014.2 hpa

77 %

4.8 km/h aus 103

6.4 km/h aus W

9.9 C

13.7 C

13.9 C

13.7 C

0 W/m

0.00 mm

21:45

13.8 C

1014.3 hpa

77 %

4.8 km/h aus 108

8.0 km/h aus SSW

9.9 C

13.6 C

13.8 C

13.6 C

0 W/m

0.00 mm

21:50

13.8 C

1014.3 hpa

78 %

4.8 km/h aus 107

9.7 km/h aus S

10.0 C

13.6 C

13.8 C

13.6 C

0 W/m

0.00 mm

21:55

13.8 C

1014.3 hpa

77 %

6.4 km/h aus 107

9.7 km/h aus S

9.8 C

13.6 C

13.8 C

13.6 C

0 W/m

0.00 mm

22:00

13.8 C

1014.3 hpa

78 %

4.8 km/h aus 106

8.0 km/h aus S

10.0 C

13.6 C

13.8 C

13.6 C

0 W/m

0.00 mm

22:05

13.7 C

1014.3 hpa

78 %

6.4 km/h aus 113

9.7 km/h aus S

10.0 C

13.4 C

13.7 C

13.5 C

0 W/m

0.00 mm

22:10

13.7 C

1014.3 hpa

78 %

4.8 km/h aus 110

8.0 km/h aus S

9.9 C

13.4 C

13.7 C

13.4 C

0 W/m

0.00 mm

22:15

13.6 C

1014.1 hpa

79 %

4.8 km/h aus 105

8.0 km/h aus S

10.0 C

13.3 C

13.6 C

13.3 C

0 W/m

0.00 mm

22:20

13.4 C

1014.1 hpa

79 %

4.8 km/h aus 113

8.0 km/h aus S

9.9 C

13.2 C

13.4 C

13.2 C

0 W/m

0.00 mm

22:25

13.4 C

1014.1 hpa

80 %

4.8 km/h aus 111

8.0 km/h aus S

10.0 C

13.2 C

13.4 C

13.2 C

0 W/m

0.00 mm

22:30

13.2 C

1014.2 hpa

81 %

6.4 km/h aus 105

9.7 km/h aus S

10.0 C

12.8 C

13.0 C

13.0 C

0 W/m

0.00 mm

22:35

13.0 C

1014.2 hpa

82 %

6.4 km/h aus 108

9.7 km/h aus SSE

10.0 C

12.7 C

12.8 C

12.9 C

0 W/m

0.00 mm

22:40

12.9 C

1014.2 hpa

82 %

6.4 km/h aus 103

14.5 km/h aus SSE

9.9 C

12.7 C

12.8 C

12.8 C

0 W/m

0.00 mm

22:45

13.0 C

1014.3 hpa

82 %

6.4 km/h aus 109

9.7 km/h aus SE

10.0 C

12.7 C

12.8 C

12.9 C

0 W/m

0.00 mm

22:50

13.1 C

1014.3 hpa

82 %

6.4 km/h aus 109

11.3 km/h aus SE

10.1 C

12.8 C

12.9 C

12.9 C

0 W/m

0.00 mm

22:55

13.1 C

1014.3 hpa

82 %

6.4 km/h aus 95

9.7 km/h aus SSE

10.1 C

12.8 C

12.9 C

13.0 C

0 W/m

0.00 mm

23:00

13.1 C

1014.4 hpa

82 %

4.8 km/h aus 90

8.0 km/h aus SSE

10.1 C

12.9 C

13.1 C

12.9 C

0 W/m

0.00 mm

23:05

12.9 C

1014.4 hpa

83 %

8.0 km/h aus 110

11.3 km/h aus SSE

10.1 C

12.4 C

12.5 C

12.8 C

0 W/m

0.00 mm

23:10

12.9 C

1014.4 hpa

83 %

8.0 km/h aus 100

12.9 km/h aus SSE

10.1 C

12.3 C

12.4 C

12.8 C

0 W/m

0.00 mm

23:15

12.8 C

1014.4 hpa

83 %

4.8 km/h aus 105

9.7 km/h aus SSE

10.0 C

12.7 C

12.8 C

12.7 C

0 W/m

0.00 mm

23:20

12.6 C

1014.4 hpa

84 %

4.8 km/h aus 101

9.7 km/h aus SSE

10.0 C

12.6 C

12.6 C

12.6 C

0 W/m

0.00 mm

23:25

12.5 C

1014.4 hpa

84 %

4.8 km/h aus 105

8.0 km/h aus SSE

9.9 C

12.4 C

12.5 C

12.4 C

0 W/m

0.00 mm

23:30

12.4 C

1014.4 hpa

85 %

4.8 km/h aus 107

8.0 km/h aus SSE

9.9 C

12.3 C

12.4 C

12.3 C

0 W/m

0.00 mm

23:35

12.3 C

1014.4 hpa

85 %

6.4 km/h aus 99

8.0 km/h aus SSE

9.8 C

11.9 C

12.0 C

12.2 C

0 W/m

0.00 mm

23:40

12.3 C

1014.4 hpa

86 %

8.0 km/h aus 102

14.5 km/h aus SSE

10.0 C

11.6 C

11.7 C

12.2 C

0 W/m

0.00 mm

23:45

12.3 C

1014.4 hpa

86 %

8.0 km/h aus 100

11.3 km/h aus SSE

10.1 C

11.7 C

11.7 C

12.3 C

0 W/m

0.00 mm

23:50

12.3 C

1014.4 hpa

86 %

6.4 km/h aus 111

9.7 km/h aus SSE

10.1 C

12.0 C

12.1 C

12.3 C

0 W/m

0.00 mm

23:55

12.3 C

1014.4 hpa

86 %

4.8 km/h aus 107

9.7 km/h aus SSE

10.1 C

12.3 C

12.3 C

12.3 C

0 W/m

0.00 mm